Regional Weather Roundup
Issued by NWS

Home | Current Version | Previous Version | Graphics & Text | Print | Product List | Glossary Off
Versions: 1 2 3 4 5 6 7 8 9 10 11 12 13 14 15 16 17 18 19 20 21 22 23 24 25 26 27 28 29 30 31 32 33 34 35 36 37 38 39 40 41 42 43 44 45 46 47 48 49 50

000
ASUS43 KDMX 231001
RWRIA

WEATHER ROUNDUP FOR IOWA
NATIONAL WEATHER SERVICE DES MOINES IA
400 AM CST TUE JAN 23 2018

NOTE: "FAIR" INDICATES FEW OR NO CLOUDS BELOW 12,000 FEET WITH NO
SIGNIFICANT WEATHER AND/OR OBSTRUCTIONS TO VISIBILITY.

* - THESE STATIONS ARE NOT NWS STATIONS...THUS NOT UNDER NWS
QUALITY CONTROL.  THEY ALSO DO NOT REPORT WEATHER SUCH
AS PRECIPITATION OR FOG.

IAZ001>003-012>014-020>022-031>034-043>046-231100-
   NORTHWEST IOWA

CITY           SKY/WX    TMP DP  RH WIND       PRES   REMARKS
CARROLL *      CLOUDY    28  25  86 NW18      29.92R WCI  16
CHEROKEE *     CLOUDY    25  23  92 NW15G21   29.99R WCI  13
DENISON *      CLOUDY    27  25  93 N18G33    29.98R WCI  13
LE MARS *      CLOUDY    25  23  93 N15G21    30.02R WCI  12
ORANGE CITY *  CLOUDY    23  21  93 N13G18    29.99R WCI  11
SHELDON *      CLOUDY    23  21  93 N23       29.97R WCI   7
SIOUX CITY     CLOUDY    24  22  91 N23       30.02R WCI   9
SPENCER        LGT SNOW  24  20  84 N21G31    29.96R FOG     WCI   9
STORM LAKE *   CLOUDY    25  23  93 NW21      29.94R WCI  10
$$

IAZ055>058-069>071-079>083-090>094-231100-
   SOUTHWEST IOWA

CITY           SKY/WX    TMP DP  RH WIND       PRES   REMARKS
ATLANTIC *     CLOUDY    28  27  93 N23       29.95R WCI  14
AUDUBON *      CLOUDY    27  25  93 NW14G24   29.94R WCI  15
CLARINDA *     CLOUDY    30  28  93 NW20      29.99  WCI  18
COUNCIL BLFS * CLOUDY    27  27 100 NW21G28   29.98R WCI  13
CRESTON *      CLOUDY    28  27  93 N18G26    29.90R WCI  16
HARLAN  *      CLOUDY    28  28 100 N23G29    29.99R WCI  14
LAMONI         CLOUDY    30  24  78 N25G32    29.85R WCI  16
RED OAK *      CLOUDY    30  27  86 N18G28    29.98R WCI  18
SHENANDOAH *   CLOUDY    30  27  86 NW12G18   30.01R WCI  21
$$

IAZ047>049-059>061-072>074-084-231100-
   CENTRAL IOWA

CITY           SKY/WX    TMP DP  RH WIND       PRES   REMARKS
AMES           CLOUDY    29  27  92 N20G30    29.86R WCI  16
ANKENY *       CLOUDY    28  25  86 N16G31    29.87R WCI  17
BOONE *        CLOUDY    28  25  86 N21G30    29.85S WCI  15
CHARITON *     CLOUDY    30  25  80 NW20G30   29.84R WCI  18
DES MOINES     CLOUDY    30  24  78 NW15G26   29.86R WCI  19
GRINNELL*      CLOUDY    29  26  88 NW26G33   29.79R WCI  14
KNOXVILLE *    CLOUDY    30  25  80 NW23G30   29.81R WCI  17
MARSHALLTOWN   CLOUDY    28  25  88 N21G30    29.81R WCI  15
NEWTON *       CLOUDY    28  25  86 N17G30    29.82R WCI  16
PELLA *        CLOUDY    30  26  85 NW18G26   29.83R WCI  17
$$

IAZ004>006-015-016-023>025-035-036-231100-
   NORTH CENTRAL IOWA

CITY           SKY/WX    TMP DP  RH WIND       PRES   REMARKS
CLARION *      CLOUDY    27  27 100 N20G26    29.86R WCI  13
ESTHERVILLE    CLOUDY    22  21  96 N25       29.93R FOG     WCI   5
FORT DODGE *   CLOUDY    25  22  88 N15G24    29.89R WCI  13
MASON CITY     MIX PCPN  24  21  88 N23       29.84R WCI   9
FOREST CITY *  MOCLDY    27  23  86 N24G32    29.85R WCI  12
WEBSTER CITY * CLOUDY    27  25  93 N23G32    29.85R WCI  12
IOWA FALLS *   CLOUDY    29  26  88 N21G28    29.82R WCI  15
$$

IAZ007>011-017>019-026>030-037>042-050>054-066-231100-
   NORTHEAST IOWA

CITY           SKY/WX    TMP DP  RH WIND       PRES   REMARKS
CEDAR RAPIDS   CLOUDY    32  27  81 NW24G30   29.72R WCI  19
CHARLES CITY * LGT RAIN  27  27 100 N21G26    29.80R WCI  13
CLINTON *      LGT RAIN  33  31  92 N12       29.65R WCI  24
DECORAH *      CLOUDY    25  23  93 N20G29    29.73R WCI  11
DUBUQUE        CLOUDY    30  27  88 N23       29.65R WCI  17
MONTICELLO *   LGT RAIN  32  30  93 NW20G26   29.69R WCI  20
OELWEIN *      CLOUDY    28  28 100 N23G30    29.75R WCI  14
WATERLOO       CLOUDY    27  22  81 N22G30    29.78R WCI  13
$$

IAZ064-065-067-068-078-231100-
   EAST CENTRAL IOWA

CITY           SKY/WX    TMP DP  RH WIND       PRES   REMARKS
DAVENPORT      CLOUDY    34  31  88 NW15      29.67R WCI  24
IOWA CITY      CLOUDY    34  28  79 NW16G23   29.73R WCI  24
MT. PLEASANT * CLOUDY    32  32 100 NW15G28   29.72R WCI  22
MUSCATINE *    CLOUDY    36  32  87 NW21G28   29.70R WCI  24
QUAD CITIES    CLOUDY    35  33  92 NW12      29.65R WCI  27
$$

IAZ062-063-075>077-085>089-095>099-231100-
   SOUTHEAST IOWA

CITY           SKY/WX    TMP DP  RH WIND       PRES   REMARKS
BURLINGTON     CLOUDY    35  32  88 NW16G25   29.69R WCI  25
FAIRFIELD *    CLOUDY    32  28  86 NW21G29   29.74R WCI  20
FORT MADISON * CLOUDY    34  34 100 NW20G29   29.72R WCI  22
KEOKUK *       CLOUDY    34  32  93 NW14G22   29.72R WCI  24
OSKALOOSA *    CLOUDY    30  26  86 NW29G35   29.79R WCI  15
OTTUMWA        CLOUDY    31  25  78 NW28G35   29.78R WCI  17
WASHINGTON *   CLOUDY    32  32 100 NW23G30   29.74R WCI  19
$$

ABBREVIATIONS USED IN REMARKS
   TC - TEMPERATURES IN CELSIUS
  WCI - WIND CHILL INDEX
   HX - HEAT INDEX
  VSB - VISIBILITY
$$





USA.gov is the U.S. government's official web portal to all federal, state and local government web resources and services.